Location: ??????????
(41.2581°N, 22.8006°E)
Time: 04:03:59
(UTC+00:00)

GEOS 3 Rocket - Pass Details

Date: 21 March 2026
Orbit: 767 x 846 km, 115.0° (Epoch: 17 April)

Event Time Altitude Azimuth Distance (km) Brightness Sun altitude
Rises 03:54:42 0° 31° (NNE) 3,413 7.5 -7.6°
Reaches altitude 10° 03:57:05 10° 26° (NNE) 2,474 6.6 -7.2°
Maximum altitude 04:02:17 50° 313° (NW) 1,059 4.0 -6.2°
Drops below altitude 10° 04:07:25 10° 239° (WSW) 2,441 5.6 -5.2°
Enters shadow 04:09:39 - 234° (SW) 3,321 6.3 -4.8°
